User: anonymous   Login
Location: Little Suamico
(44.7175°N, 88.0093°W)
Time: 07:25:12
(UTC+00:00)
Language:

Hubble Space Telescope - Orbit

View from above orbital plane
View from above orbital plane
View from above satellite
View from above satellite

Ground track
Ground track

The orbit data is extracted from the following two-line orbital elements,

1 20580U 90037B   21130.90998997  .00000488  00000-0  18579-4 0  9995
2 20580  28.4707 313.4932 0002748  21.7340 124.0367 15.09634365505384
Epoch (UTC): 10 May 2021 21:50:23
Eccentricity: 0.0002748
inclination: 28.4707°
perigee height: 535 km
apogee height: 539 km
right ascension of ascending node: 313.4932°
argument of perigee: 21.7340°
revolutions per day: 15.09634365
mean anomaly at epoch: 124.0367°
orbit number at epoch: 50538

The dashed part of the orbit path shows where the satellite is in the earth's shadow,  

DLR